Weather History for Columbia, MO

Change the Weather History Date:

Friday, December 21, 2012

  Actual Average Record
Temperature  
Mean Temperature 28 °F 31 °F  
Max Temperature 35 °F 40 °F 66 °F (1889)
Min Temperature 20 °F 22 °F -15 °F (1989)
Degree Days  
Heating Degree Days 37 34  
Month to date heating degree days 447 661  
Since 1 July heating degree days 1414 1646  
Cooling Degree Days 0 0  
Month to date cooling degree days 0 0  
Year to date cooling degree days 1896 1249  
Moisture  
Dew Point 15 °F    
Average Humidity 61    
Maximum Humidity 74    
Minimum Humidity 47    
Precipitation  
Precipitation 0.00 in 0.07 in 2.07 in (1949)
Month to date precipitation 1.31 1.74  
Year to date precipitation 30.45 41.92  
Snow  
Snow 0.00 in 0.20 in 1.70 in (1983)
Month to date snowfall 1.2 2.7  
Since 1 July snowfall 1.2 3.6  
Snow Depth 1.00 in    
Sea Level Pressure  
Sea Level Pressure 30.29 in    
Wind  
Wind Speed 9 mph (WNW)    
Max Wind Speed 23 mph    
Max Gust Speed 30 mph    
Visibility 10 miles    
Events      
T = Trace of Precipitation, MM = Missing Value Source: NWS Daily Summary

Daily Weather History Graph

Daily Weather History Graph

Search for Another Location

Airport:

Trip Planner

Search our weather history database for the weather conditions in past years. The results will help you decide how hot, cold, wet, or windy it might be!

Date:

Astronomy

Dec. 21, 2012 Rise Set
Actual Time 7:23 AM CST 4:50 PM CST
Civil Twilight 6:53 AM CST 5:20 PM CST
Nautical Twilight 6:20 AM CST 5:54 PM CST
Astronomical Twilight 5:48 AM CST 6:26 PM CST
Moon 12:35 PM CST (12/21) 1:13 AM CST (12/21)
Length of Visible Light 10h 26m
Length of Day
9h 26m
Waxing Gibbous, 65% of the Moon is Illuminated
Dec 21
Waxing Gibbous
Dec 28
Full
Jan 4
Last Quarter
Jan 11
New
Jan 18
First Quarter

Hourly Weather History & Observations

Time (CST) Temp. Windchill Dew Point Humidity Pressure Visibility Wind Dir Wind Speed Gust Speed Precip Events Conditions
12:54 AM 23.0 °F 8.7 °F 15.1 °F 72% 30.15 in 10.0 mi West 18.4 mph 27.6 mph N/A   Clear
1:54 AM 21.9 °F 7.3 °F 14.0 °F 72% 30.17 in 10.0 mi West 18.4 mph 26.5 mph N/A   Clear
2:54 AM 21.0 °F 8.1 °F 12.9 °F 71% 30.19 in 10.0 mi WNW 13.8 mph - N/A   Clear
3:54 AM 21.0 °F 9.9 °F 12.9 °F 71% 30.20 in 10.0 mi WNW 10.4 mph - N/A   Clear
4:54 AM 21.0 °F 7.6 °F 12.9 °F 71% 30.22 in 10.0 mi WNW 15.0 mph - N/A   Clear
5:54 AM 21.0 °F 7.6 °F 12.0 °F 68% 30.23 in 10.0 mi WNW 15.0 mph - N/A   Clear
6:54 AM 21.0 °F 9.3 °F 12.0 °F 68% 30.26 in 10.0 mi WNW 11.5 mph - N/A   Clear
7:54 AM 21.0 °F 9.3 °F 10.9 °F 65% 30.29 in 10.0 mi WNW 11.5 mph - N/A   Clear
8:54 AM 23.0 °F 12.4 °F 10.9 °F 60% 30.32 in 10.0 mi WNW 10.4 mph - N/A   Clear
9:54 AM 26.1 °F 16.8 °F 12.9 °F 58% 30.34 in 10.0 mi WNW 9.2 mph - N/A   Clear
10:54 AM 28.0 °F 18.6 °F 14.0 °F 56% 30.35 in 10.0 mi West 10.4 mph - N/A   Clear
11:54 AM 28.9 °F 19.8 °F 14.0 °F 54% 30.34 in 10.0 mi WNW 10.4 mph - N/A   Clear
12:54 PM 32.0 °F 24.8 °F 17.1 °F 54% 30.32 in 10.0 mi NW 8.1 mph - N/A   Clear
1:54 PM 34.0 °F 27.2 °F 17.1 °F 50% 30.30 in 10.0 mi WNW 8.1 mph - N/A   Clear
2:54 PM 35.1 °F 29.3 °F 18.0 °F 50% 30.30 in 10.0 mi WNW 6.9 mph - N/A   Clear
3:54 PM 35.1 °F 27.9 °F 17.1 °F 48% 30.32 in 10.0 mi West 9.2 mph - N/A   Clear
4:54 PM 30.9 °F 25.2 °F 16.0 °F 54% 30.33 in 10.0 mi West 5.8 mph - N/A   Clear
5:54 PM 30.0 °F - 17.1 °F 59% 30.34 in 10.0 mi Calm Calm - N/A   Clear
6:54 PM 28.9 °F - 17.1 °F 61% 30.34 in 10.0 mi Calm Calm - N/A   Clear
7:54 PM 27.0 °F 21.6 °F 17.1 °F 66% 30.34 in 10.0 mi West 4.6 mph - N/A   Clear
8:54 PM 27.0 °F 21.6 °F 16.0 °F 63% 30.34 in 10.0 mi West 4.6 mph - N/A   Clear
9:54 PM 27.0 °F 23.0 °F 16.0 °F 63% 30.34 in 10.0 mi West 3.5 mph - N/A   Clear
10:54 PM 23.0 °F 17.0 °F 15.1 °F 72% 30.32 in 10.0 mi WSW 4.6 mph - N/A   Clear
11:54 PM 26.1 °F - 15.1 °F 63% 30.31 in 10.0 mi Calm Calm - N/A   Clear